Richmond, KY

12:38 AM EST on February 25, 2017 (GMT -0500)
Richmond

Weather History for KI39 - November, 2012

Change the Weather History Date:

Saturday, November 24, 2012

  Actual Average (KLEX) Record (KLEX)
Temperature  
Mean Temperature 29 °F -  
Max Temperature 35 °F 49 °F 70 °F (1973)
Min Temperature 23 °F 33 °F 3 °F (1950)
Degree Days  
Heating Degree Days 36    
Moisture  
Dew Point 20 °F    
Average Humidity 68    
Maximum Humidity 86    
Minimum Humidity 52    
Precipitation  
Precipitation 0.00 in - - ()
Sea Level Pressure  
Sea Level Pressure 30.19 in    
Wind  
Wind Speed 7 mph (West)    
Max Wind Speed 13 mph    
Max Gust Speed 18 mph    
Visibility 10 miles    
Events      
Averages and records for this station are not official NWS values.
T = Trace of Precipitation, MM = Missing Value Source: NWS Daily Summary

Daily Weather History Graph

Daily Weather History Graph

Search for Another Location

Airport or City:

Trip Planner

Search our weather history database for the weather conditions in past years. The results will help you decide how hot, cold, wet, or windy it might be!

Date:

Astronomy

Nov. 24, 2012 Rise Set
Actual Time 7:27 AM EST 5:20 PM EST
Civil Twilight 6:58 AM EST 5:49 PM EST
Nautical Twilight 6:26 AM EST 6:21 PM EST
Astronomical Twilight 5:55 AM EST 6:52 PM EST
Moon 3:02 PM EST (11/24) 3:46 AM EST (11/24)
Length of Visible Light 10h 50m
Length of Day
9h 53m
Waxing Gibbous, 87% of the Moon is Illuminated
Nov 24
Waxing Gibbous
Nov 28
Full
Dec 6
Last Quarter
Dec 13
New
Dec 20
First Quarter

Hourly Weather History & Observations

Time (EST) Temp. Windchill Dew Point Humidity Pressure Visibility Wind Dir Wind Speed Gust Speed Precip Events Conditions
12:35 AM 33.8 °F 25.3 °F 21.2 °F 60% 30.17 in 10.0 mi NW 11.5 mph 18.4 mph N/A   Overcast
12:55 AM 33.8 °F 24.8 °F 21.2 °F 60% 30.17 in 10.0 mi NW 12.7 mph - N/A   Overcast
1:15 AM 33.8 °F 25.8 °F 21.2 °F 60% 30.17 in 10.0 mi NW 10.4 mph - N/A   Overcast
1:35 AM 33.8 °F 25.8 °F 21.2 °F 60% 30.16 in 10.0 mi NW 10.4 mph - N/A   Overcast
1:55 AM 32.0 °F 23.0 °F 21.2 °F 64% 30.16 in 10.0 mi WNW 11.5 mph - N/A   Overcast
2:15 AM 30.2 °F 22.6 °F 21.2 °F 69% 30.16 in 10.0 mi WNW 8.1 mph - N/A   Scattered Clouds
2:35 AM 30.2 °F 22.6 °F 21.2 °F 69% 30.17 in 10.0 mi West 8.1 mph - N/A   Scattered Clouds
3:15 AM 28.4 °F 19.7 °F 19.4 °F 69% 30.17 in 10.0 mi West 9.2 mph - N/A   Scattered Clouds
3:35 AM 28.4 °F 21.2 °F 19.4 °F 69% 30.18 in 10.0 mi WNW 6.9 mph - N/A   Scattered Clouds
3:55 AM 28.4 °F 19.7 °F 21.2 °F 74% 30.17 in 10.0 mi WNW 9.2 mph - N/A   Overcast
4:15 AM 28.4 °F 19.7 °F 21.2 °F 74% 30.17 in 10.0 mi WNW 9.2 mph - N/A   Overcast
4:35 AM 28.4 °F 19.7 °F 21.2 °F 74% 30.17 in 10.0 mi WNW 9.2 mph - N/A   Overcast
5:15 AM 28.4 °F 21.2 °F 19.4 °F 69% 30.18 in 10.0 mi WNW 6.9 mph - N/A   Overcast
5:35 AM 26.6 °F 20.0 °F 19.4 °F 74% 30.18 in 10.0 mi West 5.8 mph - N/A   Overcast
5:55 AM 26.6 °F 20.0 °F 19.4 °F 74% 30.18 in 10.0 mi West 5.8 mph - N/A   Overcast
6:15 AM 26.6 °F 19.1 °F 21.2 °F 80% 30.18 in 10.0 mi West 6.9 mph - N/A   Overcast
6:35 AM 26.6 °F 18.2 °F 19.4 °F 74% 30.19 in 10.0 mi West 8.1 mph - N/A   Overcast
7:15 AM 24.8 °F 17.9 °F 19.4 °F 80% 30.20 in 10.0 mi West 5.8 mph - N/A   Overcast
7:35 AM 24.8 °F 16.9 °F 19.4 °F 80% 30.20 in 10.0 mi West 6.9 mph - N/A   Mostly Cloudy
7:55 AM 23.0 °F 15.8 °F 19.4 °F 86% 30.22 in 10.0 mi WSW 5.8 mph - N/A   Mostly Cloudy
8:15 AM 23.0 °F 15.8 °F 19.4 °F 86% 30.22 in 10.0 mi WSW 5.8 mph - N/A   Scattered Clouds
8:35 AM 23.0 °F 15.8 °F 19.4 °F 86% 30.23 in 10.0 mi WSW 5.8 mph - N/A   Clear
8:55 AM 24.8 °F 19.1 °F 19.4 °F 80% 30.22 in 10.0 mi West 4.6 mph - N/A   Clear
9:15 AM 26.6 °F 18.2 °F 19.4 °F 74% 30.23 in 10.0 mi WNW 8.1 mph - N/A   Clear
9:35 AM 28.4 °F 21.2 °F 19.4 °F 69% 30.23 in 10.0 mi WNW 6.9 mph - N/A   Clear
9:55 AM 28.4 °F 20.4 °F 19.4 °F 69% 30.23 in 10.0 mi NNW 8.1 mph - N/A   Clear
10:15 AM 30.2 °F 21.9 °F 19.4 °F 64% 30.23 in 10.0 mi WNW 9.2 mph - N/A   Scattered Clouds
10:35 AM 30.2 °F 23.4 °F 19.4 °F 64% 30.24 in 10.0 mi NW 6.9 mph - N/A   Mostly Cloudy
10:55 AM 30.2 °F 25.4 °F 19.4 °F 64% 30.24 in 10.0 mi West 4.6 mph - N/A   Overcast
11:15 AM 30.2 °F 22.6 °F 19.4 °F 64% 30.24 in 10.0 mi WNW 8.1 mph - N/A   Mostly Cloudy
11:35 AM 32.0 °F 25.6 °F 19.4 °F 60% 30.23 in 10.0 mi WSW 6.9 mph - N/A   Overcast
11:55 AM 32.0 °F 27.5 °F 19.4 °F 60% 30.23 in 10.0 mi NNW 4.6 mph - N/A   Overcast
12:15 PM 30.2 °F - 19.4 °F 64% 30.22 in 10.0 mi Calm Calm - N/A   Mostly Cloudy
12:35 PM 32.0 °F 26.4 °F 19.4 °F 60% 30.21 in 10.0 mi WNW 5.8 mph - N/A   Mostly Cloudy
12:55 PM 32.0 °F 25.6 °F 19.4 °F 60% 30.20 in 10.0 mi NNW 6.9 mph - N/A   Mostly Cloudy
1:15 PM 33.8 °F 27.0 °F 19.4 °F 56% 30.20 in 10.0 mi NW 8.1 mph - N/A   Mostly Cloudy
1:35 PM 33.8 °F 27.7 °F 19.4 °F 56% 30.19 in 10.0 mi West 6.9 mph - N/A   Scattered Clouds
1:55 PM 32.0 °F 25.6 °F 19.4 °F 60% 30.19 in 10.0 mi West 6.9 mph - N/A   Mostly Cloudy
2:15 PM 33.8 °F 29.6 °F 19.4 °F 56% 30.19 in 10.0 mi West 4.6 mph - N/A   Mostly Cloudy
2:35 PM 32.0 °F 26.4 °F 19.4 °F 60% 30.18 in 10.0 mi WSW 5.8 mph - N/A   Mostly Cloudy
2:55 PM 35.6 °F 29.9 °F 19.4 °F 52% 30.18 in 10.0 mi WSW 6.9 mph - N/A   Overcast
3:15 PM 35.6 °F 28.6 °F 19.4 °F 52% 30.18 in 10.0 mi West 9.2 mph - N/A   Overcast
3:35 PM 33.8 °F 27.0 °F 19.4 °F 56% 30.18 in 10.0 mi WNW 8.1 mph - N/A   Scattered Clouds
3:55 PM 33.8 °F 27.7 °F 19.4 °F 56% 30.18 in 10.0 mi WNW 6.9 mph - N/A   Scattered Clouds
4:15 PM 33.8 °F 27.0 °F 19.4 °F 56% 30.19 in 10.0 mi West 8.1 mph - N/A   Mostly Cloudy
4:35 PM 33.8 °F 27.0 °F 19.4 °F 56% 30.18 in 10.0 mi WNW 8.1 mph - N/A   Mostly Cloudy
4:55 PM 32.0 °F 25.6 °F 19.4 °F 60% 30.19 in 10.0 mi West 6.9 mph - N/A   Scattered Clouds
5:15 PM 32.0 °F 27.5 °F 19.4 °F 60% 30.18 in 10.0 mi West 4.6 mph - N/A   Scattered Clouds
5:35 PM 32.0 °F - 19.4 °F 60% 30.18 in 10.0 mi Calm Calm - N/A   Clear
5:55 PM 32.0 °F - 19.4 °F 60% 30.18 in 10.0 mi Calm Calm - N/A   Clear
6:15 PM 30.2 °F 26.7 °F 19.4 °F 64% 30.18 in 10.0 mi West 3.5 mph - N/A   Clear
6:35 PM 30.2 °F 26.7 °F 19.4 °F 64% 30.19 in 10.0 mi West 3.5 mph - N/A   Clear
6:55 PM 30.2 °F 26.7 °F 19.4 °F 64% 30.18 in 10.0 mi West 3.5 mph - N/A   Clear
7:15 PM 30.2 °F - 19.4 °F 64% 30.18 in 10.0 mi Calm Calm - N/A   Clear
7:35 PM 30.2 °F - 19.4 °F 64% 30.18 in 10.0 mi Calm Calm - N/A   Clear
7:55 PM 28.4 °F - 19.4 °F 69% 30.18 in 10.0 mi Calm Calm - N/A   Clear
8:15 PM 26.6 °F 22.6 °F 19.4 °F 74% 30.17 in 10.0 mi SSE 3.5 mph - N/A   Clear
8:35 PM 28.4 °F 24.6 °F 19.4 °F 69% 30.17 in 10.0 mi South 3.5 mph - N/A   Clear
8:55 PM 28.4 °F 24.6 °F 19.4 °F 69% 30.17 in 10.0 mi SSW 3.5 mph - N/A   Clear
9:15 PM 24.8 °F 20.5 °F 19.4 °F 80% 30.16 in 10.0 mi South 3.5 mph - N/A   Clear
9:55 PM 24.8 °F 20.5 °F 19.4 °F 80% 30.16 in 10.0 mi SSE 3.5 mph - N/A   Clear
10:15 PM 24.8 °F 20.5 °F 19.4 °F 80% 30.15 in 10.0 mi SSE 3.5 mph - N/A   Clear
10:35 PM 24.8 °F - 19.4 °F 80% 30.16 in 10.0 mi Calm Calm - N/A   Clear
10:55 PM 24.8 °F - 19.4 °F 80% 30.15 in 10.0 mi Calm Calm - N/A   Clear
11:15 PM 24.8 °F - 19.4 °F 80% 30.15 in 10.0 mi Calm Calm - N/A   Clear
11:35 PM 24.8 °F 19.1 °F 19.4 °F 80% 30.15 in 10.0 mi SSW 4.6 mph - N/A   Clear
11:55 PM 23.0 °F 18.4 °F 19.4 °F 86% 30.13 in 10.0 mi South 3.5 mph - N/A   Clear